Hourly Data Report for June 10, 2021

CARIBOU POINT (AUT)
NOVA SCOTIA
Current Station Operator: ECCC - MSC

45°46'00.000" N
62°41'00.000" W
2.40 m
8200774
71415
WBK

Download Data

Hourly Data (June 2021)
Hourly Data Report for June 10, 2021
TIME
LST
Temp Definition
°C
Dew Point Definition
°C
Rel Hum Definition
%
Precip. Amount Definition
mm

Wind Dir Definition
10's deg

Wind Spd Definition
km/h
Visibility Definition
km
Stn Press Definition
kPa
Hmdx Definition


Wind Chill Definition


Weather Definition


00:00 11.3 6.8 74 0.0 9 3   100.98     LegendNANA
01:00 11.2 6.8 74 0.0 23 6   100.93     LegendNANA
02:00 10.5 7.7 83 0.0 25 8   100.87     LegendNANA
03:00 9.4 7.0 85 0.0 27 7   100.84     LegendNANA
04:00 9.7 6.5 80 0.0 27 6   100.82     LegendNANA
05:00 11.3 7.3 77 0.0 28 17   100.87     LegendNANA
06:00 13.5 10.4 82 0.0 31 43   100.88     LegendNANA
07:00 12.1 8.3 78 0.0 34 44   101.04     LegendNANA
08:00 12.4 6.7 68 0.0 32 33   101.12     LegendNANA
09:00 12.3 4.6 60 0.0 32 42   101.13     LegendNANA
10:00 12.4 5.6 63 0.0 32 35   101.15     LegendNANA
11:00 12.5 5.5 62 0.0 32 41   101.16     LegendNANA
12:00 12.3 5.6 64 0.0 32 52   101.19     LegendNANA
13:00 11.1 6.3 72 0.0 32 57   101.22     LegendNANA
14:00 11.6 6.4 70 0.0 33 52   101.27     LegendNANA
15:00 10.7 5.9 73 0.0 33 51   101.41     LegendNANA
16:00 10.9 6.9 76 0.0 35 42   101.52     LegendNANA
17:00 10.7 6.3 74 0.0 2 34   101.62     LegendNANA
18:00 10.8 5.1 68 0.0 35 30   101.72     LegendNANA
19:00 10.3 4.3 66 0.0 35 28   101.86     LegendNANA
20:00 9.8 4.1 68 0.0 34 25   101.92     LegendNANA
21:00 9.5 4.8 72 0.0 33 27   101.96     LegendNANA
22:00 9.2 4.2 71 0.0 34 21   101.92     LegendNANA
23:00 9.4 4.5 71 0.0 32 20   101.88     LegendNANA

Notes on Data Quality.

Legend

  • E = Estimated
  • M = Missing
  • NA = Not Available*
  • [empty] = Indicates an unobserved value
Date modified: